Location: Burera
(21.3780°N, 81.9534°E)
Time: 11:18:01
(UTC+00:00)

FUSE - Pass Details

Date: 13 August 2020
Orbit: 742 x 756 km, 25.0° (Epoch: 22 September)

Event Time Altitude Azimuth Distance (km) Brightness Sun altitude
Rises 14:18:13 0° 281° (W) 3,189 8.8 -17.2°
Reaches altitude 10° 14:20:43 10° 284° (WNW) 2,266 7.7 -17.7°
Maximum altitude 14:26:02 61° 5° (N) 849 4.3 -18.8°
Enters shadow 14:28:40 29° 75° (ENE) 1,345 4.8 -19.4°
